Погода в Саме

Погода в Саме : погода сейчас, прогноз погоды и архив. Всё, что Вы хотите узнать о погоде в Саме!

Поиск расширенной информации на нашем сайте:

Другие новости

Новости СМИ2

Главная страница сайта

Новости сайта

03.07.2017

Напоминаем, что на нашем специализированном сайте Метеоцентр.Азия вы можете получить высокодетализированные автоматические прогнозы погоды по пунктам России, СНГ и мира в авиационном формате (включающие направление и скорость ветра, видимость, явления погоды, количество и форму облачности, нижнюю и верхнюю границу облачности).


Погода в Саме - сегодня

Время (UTC), дата Ветер
(°,м/с) 
Видим.   Явления Облачность Т
(°С)
Тd
(°С)
f(%) Тe
(°С)
Pmin
(гПа)
dP
(гПа)
Po
(мм)
O2
(г/м3)
Тmin Tmax R s Состояние
почвы
06 15.08.17 070 (В) 20000 м    ясно 
+25.6 +6.4 29 +26  1012.7  0.6  752  275  +18.2         
09 15.08.17 070 (В) 20000 м    ясно 
+28.9 +5 22 +29  1012.4  -0.3  752  273           
12 15.08.17 070 (В) 20000 м    ясно 
+30.3 +3.4 18 +30  1012  -0.3  752  272           
15 15.08.17 070 (В) 20000 м    ясно 
+29.3 +2.7 18 +29  1012.5  0.5  752  273    +30.8       
18 15.08.17 070 (В) н/о    ясно 
+23.8 +1.1 22 +24  1013.8  1.1  753  278    +30.8       
21 15.08.17 070 (В) н/о    ясно 
+19.9 +0 26 +21  1014.6  0.6  754  282           
00 16.08.17 070 (В) н/о    ясно 
+19 +0.2 28 +20  1015.1  0.5  754  284           
03 16.08.17 070 (В) 20000 м    ясно 
+21 +0.4 25 +21  1017  1.9  756  282           
06 16.08.17 090 (В) 20000 м    3/0 верхняя 
[Ci sp]
+29.3 +2.3 18 +29  1017.2  0.5  756  274  +16.9         
09 16.08.17 090 (В) 20000 м    3/0 верхняя 
[Ci sp]
+31.7 +0.9 14 +32  1016.9  -0.2  756  272           
12 16.08.17 090 (В) 20000 м    4/0 верхняя 
[Ci sp]
+32.8 +0.2 12 +33    -0.4        40     
15 16.08.17 090 (В) 20000 м    3/0 верхняя 
[Ci sp]
+30.2 -1.4 13 +30  1017.2  0.6  756  274    +33.2       
18 16.08.17 090 (В) н/о    3/0 верхняя 
[Ci sp]
+23.8 -2.2 18 +24  1018.4  757  280    +33.2       
21 16.08.17 090 (В) н/о    3/0 верхняя 
[Ci sp]
+20.2 -1.7 23 +20  1019.1  0.5  757  283           
00 17.08.17 090 (В) н/о    ясно верхняя 
[Ci fib]
+16.2 -1.7 29 +17  1019.4  0.2  757  288           
03 17.08.17 090 (В) 20000 м    9/0 верхняя 
[Cs]
+19.7 -0.5 26 +21  1020.4  1.1  751  282           
06 17.08.17 090 (В) 20000 м    6/0 верхняя 
[Ci sp]
+28.8 -0.5 15 +29  1020.4  0.3  758  276  +16.1         
09 17.08.17 110 (В) 20000 м    4/0 верхняя 
[Ci sp]
+31.4 -1.4 12 +31  1019.3  -0.9  757  273           
12 17.08.17 110 (В) 20000 м    9/0 верхняя 
[Ci sp]
+32 -2.2 11 +32  1018.4  -0.9  756  273           
15 17.08.17 110 (В) 20000 м    9/0 средняя, верхняя 
[Ac cuf|Ci sp]
+29.9 -1.2 13 +30  1018.4  -0.1  757  274    +32.5       
18 17.08.17 140 (ЮВ) н/о    4/0 средняя 
[Ac cuf]
+24 -1.7 18 +24  1019  0.4  757  280    +32.5       
21 17.08.17 тихо ()   н/о    3/0 средняя 
[Ac lent]
+19.6 -1.4 24 +20  1018.9  -0.6  757  284           
00 18.08.17 090 (В) н/о    3/0 средняя 
[Ac lent]
+19.4 -1.7 24 +21  1018.4  -0.2  756  285           
03 18.08.17 070 (В) 20000 м    9/0 верхняя 
[Cs]
+19.8 -0.5 26 +21  1019.1  0.7  757  284           
06 18.08.17 090 (В) 20000 м    9/0 верхняя 
[Cs]
+28.4 -0.7 15 +28  1019.1  0.3  757  276  +17.1         
Время (UTC), дата Ветер
(°,м/с) 
Видим.   Явления Облачность Т
(°С)
Тd
(°С)
f(%) Тe
(°С)
Pmin
(гПа)
dP
(гПа)
Po
(мм)
O2
(г/м3)
Тmin Tmax R s Состояние
почвы

Для получения пояснительной информации подведите курсор к названию столбца.

ПОГОДА в Саме - архив

Всё, что Вы хотите узнать о погоде в Саме - удобно и подробно!

Выберите нужную дату (начиная с 1 января 2015* года) и нажмите кнопку "Найти".
Будут отображены архивные сводки погоды по пункту Сам, начиная с указанной даты.


Отображать данные в формате CSV (для использования в таблицах Excel)


Внимание! Наш архив погоды предназначен исключительно для личного некоммерческого использования в познавательных целях. Если Вам необходимы официальные справки о состоянии погоды (для производственных, юридических, коммерческих и т.п. целей), обращайтесь в органы Росгидромета.

*Примечание: данная дата относится к архиву по метеостанциям СССР (Россия, СНГ, Балтия).
Архив по метеостанциям Зарубежной Европы и Азии (кроме Китая) хранится 10 дней, по другим регионам земного шара (Китай, Африка, Америка, Австралия, Океания) - 1 день.

Сам - район местоположения метеостанции


Название, широта, долгота, высота метеостанции:
Сам 45.4°ш. 56.1°д. 82 м над ур. моря [Казахстан]

Дополнительная информация

В oтличие oт бoльшинства пoгoдных сайтoв мы публикуем пoдрoбную метеoинфoрмацию в детальнoм прoфессиoнальнoм фoрмате.

Характеристики температуры и влажнoсти вoздуха измеряются на высoте 2 м в тени вдали oт зданий и деревьев.
Скoрoсть ветра измеряется на высoте 10 м (на урoвне рoста челoвека скoрoсть ветра ниже в 1.5-2 раза). Если метеoстанция нахoдится в гoрoде или в лесу, тo скoрoсть ветра занижена на 2-4 м/с пo сравнению с oткрытым местoм. Скoрoсть ветра над акватoриями крупных рек и oзёр, а также на вершинах хoлмoв на 2-5 м/с выше, чем в oбычных услoвиях.
Атмoсфернoе давление в разных тoчках местнoсти мoжет значительнo oтличаться oт давления на метеoстанции, в зависимoсти oт услoвий рельефа (при пoдъёме на 10 м давление пoнижается примернo на 1 мм рт.ст.).